Location: Kergrach
(48.3833°N, 4.5167°W)
Time: 18:24:06
(UTC+00:00)

Cosmos 2360 Rocket - Pass Details

Date: 18 February 2020
Orbit: 836 x 843 km, 71.0° (Epoch: 27 March)

Event Time Altitude Azimuth Distance (km) Brightness Sun altitude
Exits shadow 04:10:57 14° 349° (N) 2,215 4.4 -31.9°
Drops below altitude 10° 04:12:18 10° 2° (N) 2,466 4.8 -31.7°
Sets 04:15:46 0° 24° (NNE) 3,402 5.9 -31.2°
